Regional Weather Roundup
Issued by NWS

Home | Current Version | Previous Version | Text Only | Print | Product List | Glossary Off
Versions: 1 2 3 4 5 6 7 8 9 10 11 12 13 14 15 16 17 18 19 20 21 22 23 24 25 26 27 28 29 30 31 32 33 34 35 36 37 38 39 40 41 42 43 44 45 46 47 48 49 50

611
ASUS44 KMEG 110400
RWRTN
TENNESSEE HOURLY STATE WEATHER ROUNDUP
NATIONAL WEATHER SERVICE MEMPHIS TN
1000 PM CST SAT DEC 10 2016

TNZ002-004-019-021-049-052-054-088>092-110500-
WEST TENNESSEE

CITY           SKY/WX    TMP DP  RH WIND       PRES   REMARKS
MEMPHIS INTL   PTCLDY    39  16  39 S8        30.34S WCI  33
NWS MEMPHIS      N/A     38 N/A N/A MISG        N/A
JACKSON        CLOUDY    35  16  45 S6        30.36F WCI  30
DYERSBURG      CLOUDY    39  16  38 S9G17     30.33S WCI  33
UNION CITY     CLOUDY    36  18  48 CALM      30.32R
PARIS          CLOUDY    34  16  47 SE10      30.33S WCI  26
$$

TNZ008-025-027-028-033-062-065-066-110500-
NORTH MIDDLE TENNESSEE

CITY           SKY/WX    TMP DP  RH WIND       PRES   REMARKS
NASHVILLE      CLOUDY    29  17  61 S3        30.41S
CLARKSVILLE    CLOUDY    26  15  63 SE6       30.38F WCI  19
SMYRNA         CLOUDY    23  20  88 SE3       30.42F
CROSSVILLE     CLEAR     28  13  53 CALM      30.36F
$$

TNZ061-075-076-078-094-096-097-110500-
SOUTH MIDDLE TENNESSEE

CITY           SKY/WX    TMP DP  RH WIND       PRES   REMARKS
TULLAHOMA      CLEAR     25  18  74 CALM      30.38F
WINCHESTER     CLEAR     23  18  80 SE5       30.39F WCI  17
SHELBYVILLE    CLEAR     25  21  86 E3        30.41R
$$

TNZ017-018-042-046-047-110500-
NORTHEAST TENNESSEE

CITY           SKY/WX    TMP DP  RH WIND       PRES   REMARKS
TRI CITIES     MOCLDY    25  18  74 CALM      30.42F
$$

TNZ012-013-036-069-073-074-110500-
CENTRAL EAST TENNESSEE

CITY           SKY/WX    TMP DP  RH WIND       PRES   REMARKS
KNOXVILLE      CLEAR     29  15  56 CALM      30.41S
OAK RIDGE      CLEAR     26  19  74 CALM      30.43F
GATLINBURG     CLEAR     21  16  79 CALM      30.41S
$$

TNZ083-085-099-110500-
SOUTHEAST TENNESSEE

CITY           SKY/WX    TMP DP  RH WIND       PRES   REMARKS
CHATTANOOGA    CLEAR     29  19  66 CALM      30.43F
$$

SKY/WX REPORTED AS FAIR MEANS FEW OR NO CLOUDS BELOW
12 THOUSAND FEET.





USA.gov is the U.S. government's official web portal to all federal, state and local government web resources and services.